Skagway, AK

5:40 AM AKDT on October 20, 2017 (GMT -0800)
Skagway

Weather History for PAGY - May, 2014

Change the Weather History Date:

Saturday, May 3, 2014

  Actual Average Record
Temperature  
Mean Temperature 55 °F -  
Max Temperature 66 °F 51 °F 68 °F (2004)
Min Temperature 44 °F 36 °F 28 °F (1988)
Degree Days  
Heating Degree Days 10    
Growing Degree Days 5 (Base 50)    
Moisture  
Dew Point 22 °F    
Average Humidity 29    
Maximum Humidity 55    
Minimum Humidity 16    
Precipitation  
Precipitation 0.00 in - - ()
Sea Level Pressure  
Sea Level Pressure 30.10 in    
Wind  
Wind Speed 7 mph (NNE)    
Max Wind Speed 16 mph    
Max Gust Speed 23 mph    
Visibility 10 miles    
Events      
Averages and records for this station are not official NWS values.
T = Trace of Precipitation, MM = Missing Value Source: NWS Daily Summary

Daily Weather History Graph

Daily Weather History Graph

Search for Another Location

Airport or City:

Trip Planner

Search our weather history database for the weather conditions in past years. The results will help you decide how hot, cold, wet, or windy it might be!

Date:

Astronomy

May. 03, 2014 Rise Set
Actual Time 4:56 AM AKDT 9:01 PM AKDT
Civil Twilight 4:03 AM AKDT 9:55 PM AKDT
Nautical Twilight 2:40 AM AKDT 11:20 PM AKDT
Astronomical Twilight Sun does not rise Sun does not rise
Moon 8:20 AM AKDT (5/3) 12:41 AM AKDT (5/3)
Length of Visible Light 17h 52m
Length of Day
16h 05m
Waxing Crescent, 21% of the Moon is Illuminated
May 3
Waxing Crescent
May 6
First Quarter
May 14
Full
May 21
Last Quarter
May 28
New

Hourly Weather History & Observations

Time (AKDT) Temp. Windchill Dew Point Humidity Pressure Visibility Wind Dir Wind Speed Gust Speed Precip Events Conditions
12:53 AM 55.0 °F - 21.9 °F 28% 30.17 in 10.0 mi North 10.4 mph - N/A   Clear
1:53 AM 54.0 °F - 21.9 °F 29% 30.17 in 10.0 mi NE 6.9 mph - N/A   Clear
2:53 AM 54.0 °F - 21.0 °F 28% 30.17 in 10.0 mi North 8.1 mph - N/A   Clear
3:53 AM 50.0 °F - 24.1 °F 36% 30.17 in 10.0 mi Calm Calm - N/A   Clear
4:53 AM 48.9 °F - 24.1 °F 38% 30.17 in 10.0 mi Calm Calm - N/A   Clear
5:53 AM 48.9 °F - 25.0 °F 39% 30.16 in 10.0 mi Calm Calm - N/A   Clear
6:53 AM 44.1 °F - 28.9 °F 55% 30.17 in 10.0 mi Calm Calm - N/A   Clear
7:53 AM 52.0 °F - 23.0 °F 32% 30.15 in 10.0 mi Variable 5.8 mph - N/A   Clear
8:53 AM 59.0 °F - 19.0 °F 21% 30.14 in 10.0 mi NE 16.1 mph - N/A   Clear
9:53 AM 61.0 °F - 19.9 °F 21% 30.13 in 10.0 mi NE 16.1 mph - N/A   Clear
10:53 AM 62.1 °F - 18.0 °F 18% 30.13 in 10.0 mi NNE 8.1 mph - N/A   Clear
11:53 AM 63.0 °F - 18.0 °F 18% 30.12 in 10.0 mi NE 11.5 mph 20.7 mph N/A   Clear
12:53 PM 64.9 °F - 19.0 °F 17% 30.10 in 10.0 mi NNE 12.7 mph 19.6 mph N/A   Clear
1:53 PM 64.9 °F - 18.0 °F 16% 30.09 in 10.0 mi NE 8.1 mph 20.7 mph N/A   Clear
2:53 PM 64.9 °F - 18.0 °F 16% 30.07 in 10.0 mi NE 10.4 mph - N/A   Clear
3:53 PM 66.0 °F - 18.0 °F 16% 30.05 in 10.0 mi NNE 8.1 mph - N/A   Clear
4:53 PM 66.0 °F - 19.0 °F 17% 30.03 in 10.0 mi NNE 15.0 mph 23.0 mph N/A   Clear
5:53 PM 66.0 °F - 19.9 °F 17% 30.02 in 10.0 mi NNE 12.7 mph 16.1 mph N/A   Clear
6:53 PM 63.0 °F - 21.0 °F 20% 30.01 in 10.0 mi North 6.9 mph - N/A   Clear
7:53 PM 59.0 °F - 25.0 °F 27% 30.01 in 10.0 mi North 4.6 mph - N/A   Clear
8:53 PM 54.0 °F - 28.9 °F 38% 30.02 in 10.0 mi Calm Calm - N/A   Clear
9:53 PM 50.0 °F - 28.9 °F 44% 30.04 in 10.0 mi Calm Calm - N/A   Clear
10:53 PM 48.0 °F - 28.0 °F 46% 30.04 in 10.0 mi Calm Calm - N/A   Clear
11:53 PM 46.0 °F 43.9 °F 30.0 °F 54% 30.05 in 10.0 mi ENE 4.6 mph - N/A   Clear